Time,TemperatureF,DewpointF,PressureIn,WindDirection,WindDirectionDegrees,WindSpeedMPH,WindSpeedGustMPH,Humidity,HourlyPrecipIn,Conditions,Clouds,dailyrainin,SoftwareType,DateUTC
2013-01-09 00:02:00,26.0,22.0,-100.00,NE,40,1.0,3.0,86,-99.99,,,-99.99,,2013-01-09 07:02:00,
2013-01-09 00:11:00,25.0,22.0,-100.00,North,0,0.0,1.0,86,-99.99,,,-99.99,,2013-01-09 07:11:00,
2013-01-09 00:22:00,25.0,22.0,-100.00,East,89,2.0,3.0,86,-99.99,,,-99.99,,2013-01-09 07:22:00,
2013-01-09 00:32:00,24.0,20.0,-100.00,East,91,1.0,3.0,85,-99.99,,,-99.99,,2013-01-09 07:32:00,
2013-01-09 00:42:00,24.0,20.0,-100.00,East,91,1.0,3.0,85,-99.99,,,-99.99,,2013-01-09 07:42:00,
2013-01-09 00:52:00,22.0,19.0,-100.00,ENE,69,0.0,3.0,86,-99.99,,,-99.99,,2013-01-09 07:52:00,
2013-01-09 01:02:00,22.0,19.0,-100.00,ENE,69,0.0,3.0,86,-99.99,,,-99.99,,2013-01-09 08:02:00,
2013-01-09 01:11:00,20.0,17.0,-100.00,NE,53,3.0,3.0,86,-99.99,,,-99.99,,2013-01-09 08:11:00,
2013-01-09 01:22:00,20.0,17.0,-100.00,NE,53,3.0,3.0,86,-99.99,,,-99.99,,2013-01-09 08:22:00,
2013-01-09 01:32:00,20.0,17.0,-100.00,NE,39,2.0,3.0,89,-99.99,,,-99.99,,2013-01-09 08:32:00,
2013-01-09 01:42:00,20.0,18.0,-100.00,NE,49,1.0,4.0,89,-99.99,,,-99.99,,2013-01-09 08:42:00,
2013-01-09 01:52:00,20.0,18.0,-100.00,NE,49,1.0,4.0,89,-99.99,,,-99.99,,2013-01-09 08:52:00,
2013-01-09 02:02:00,19.0,17.0,-100.00,South,185,3.0,4.0,90,-99.99,,,-99.99,,2013-01-09 09:02:00,
2013-01-09 02:11:00,19.0,17.0,-100.00,South,191,1.0,4.0,90,-99.99,,,-99.99,,2013-01-09 09:11:00,
2013-01-09 02:22:00,19.0,17.0,-100.00,South,191,0.0,2.0,90,-99.99,,,-99.99,,2013-01-09 09:22:00,
2013-01-09 02:32:00,18.0,16.0,-100.00,SE,140,2.0,3.0,90,-99.99,,,-99.99,,2013-01-09 09:32:00,
2013-01-09 02:42:00,18.0,16.0,-100.00,SE,140,2.0,3.0,90,-99.99,,,-99.99,,2013-01-09 09:42:00,
2013-01-09 02:52:00,19.0,16.0,-100.00,SE,133,3.0,3.0,90,-99.99,,,-99.99,,2013-01-09 09:52:00,
2013-01-09 03:01:00,15.0,13.0,-100.00,ENE,67,4.0,4.0,91,-99.99,,,-99.99,,2013-01-09 10:01:00,
2013-01-09 03:11:00,16.0,14.0,-100.00,SE,125,3.0,4.0,91,-99.99,,,-99.99,,2013-01-09 10:11:00,
2013-01-09 03:22:00,16.0,14.0,-100.00,SE,125,3.0,4.0,91,-99.99,,,-99.99,,2013-01-09 10:22:00,
2013-01-09 03:42:00,14.0,12.0,-100.00,East,79,3.0,3.0,90,-99.99,,,-99.99,,2013-01-09 10:42:00,
2013-01-09 03:52:00,14.0,12.0,-100.00,East,79,3.0,3.0,90,-99.99,,,-99.99,,2013-01-09 10:52:00,
2013-01-09 04:02:00,14.0,12.0,-100.00,North,0,0.0,3.0,90,-99.99,,,-99.99,,2013-01-09 11:02:00,
2013-01-09 04:11:00,12.0,10.0,-100.00,East,86,4.0,4.0,90,-99.99,,,-99.99,,2013-01-09 11:11:00,
2013-01-09 04:22:00,12.0,10.0,-100.00,East,86,4.0,4.0,90,-99.99,,,-99.99,,2013-01-09 11:22:00,
2013-01-09 04:32:00,13.0,10.0,-100.00,East,89,0.0,1.0,90,-99.99,,,-99.99,,2013-01-09 11:32:00,
2013-01-09 04:42:00,13.0,11.0,-100.00,North,0,0.0,1.0,91,-99.99,,,-99.99,,2013-01-09 11:42:00,
2013-01-09 04:52:00,13.0,11.0,-100.00,North,0,0.0,1.0,91,-99.99,,,-99.99,,2013-01-09 11:52:00,
2013-01-09 05:03:00,13.0,11.0,-100.00,East,89,3.0,3.0,90,-99.99,,,-99.99,,2013-01-09 12:03:00,
2013-01-09 05:12:00,10.0,8.0,-100.00,East,89,4.0,4.0,90,-99.99,,,-99.99,,2013-01-09 12:12:00,
2013-01-09 05:22:00,10.0,8.0,-100.00,East,89,4.0,4.0,90,-99.99,,,-99.99,,2013-01-09 12:22:00,
2013-01-09 05:32:00,12.0,9.0,-100.00,East,87,3.0,3.0,90,-99.99,,,-99.99,,2013-01-09 12:32:00,
2013-01-09 05:52:00,12.0,9.0,-100.00,East,86,4.0,4.0,90,-99.99,,,-99.99,,2013-01-09 12:52:00,
2013-01-09 06:02:00,12.0,10.0,-100.00,ESE,109,2.0,5.0,90,-99.99,,,-99.99,,2013-01-09 13:02:00,
2013-01-09 06:12:00,11.0,9.0,-100.00,ESE,117,3.0,4.0,90,-99.99,,,-99.99,,2013-01-09 13:12:00,
2013-01-09 06:22:00,11.0,9.0,-100.00,ESE,117,3.0,4.0,90,-99.99,,,-99.99,,2013-01-09 13:22:00,
2013-01-09 06:32:00,9.0,6.0,-100.00,East,92,3.0,3.0,89,-99.99,,,-99.99,,2013-01-09 13:32:00,
2013-01-09 06:42:00,10.0,8.0,-100.00,East,96,5.0,5.0,91,-99.99,,,-99.99,,2013-01-09 13:42:00,
2013-01-09 06:52:00,10.0,8.0,-100.00,East,96,5.0,5.0,91,-99.99,,,-99.99,,2013-01-09 13:52:00,
2013-01-09 07:02:00,9.0,7.0,-100.00,East,94,5.0,5.0,89,-99.99,,,-99.99,,2013-01-09 14:02:00,
2013-01-09 07:12:00,10.0,8.0,-100.00,East,95,5.0,5.0,89,-99.99,,,-99.99,,2013-01-09 14:12:00,
2013-01-09 07:22:00,10.0,8.0,-100.00,East,95,5.0,5.0,89,-99.99,,,-99.99,,2013-01-09 14:22:00,
2013-01-09 07:32:00,11.0,8.0,-100.00,ESE,116,4.0,5.0,90,-99.99,,,-99.99,,2013-01-09 14:32:00,
2013-01-09 07:42:00,11.0,9.0,-100.00,ESE,106,4.0,5.0,90,-99.99,,,-99.99,,2013-01-09 14:42:00,
2013-01-09 07:52:00,11.0,9.0,-100.00,ESE,106,4.0,5.0,90,-99.99,,,-99.99,,2013-01-09 14:52:00,
2013-01-09 08:03:00,8.0,6.0,-100.00,ENE,76,4.0,4.0,89,-99.99,,,-99.99,,2013-01-09 15:03:00,
2013-01-09 08:12:00,9.0,7.0,-100.00,East,94,5.0,5.0,89,-99.99,,,-99.99,,2013-01-09 15:12:00,
2013-01-09 08:22:00,9.0,7.0,-100.00,East,94,5.0,5.0,89,-99.99,,,-99.99,,2013-01-09 15:22:00,
2013-01-09 08:33:00,8.0,5.0,-100.00,ENE,78,4.0,4.0,89,-99.99,,,-99.99,,2013-01-09 15:33:00,
2013-01-09 08:42:00,8.0,5.0,-100.00,East,97,4.0,5.0,89,-99.99,,,-99.99,,2013-01-09 15:42:00,
2013-01-09 08:52:00,8.0,5.0,-100.00,East,97,4.0,5.0,89,-99.99,,,-99.99,,2013-01-09 15:52:00,
2013-01-09 09:02:00,11.0,9.0,-100.00,ESE,112,4.0,5.0,90,-99.99,,,-99.99,,2013-01-09 16:02:00,
2013-01-09 09:12:00,12.0,10.0,-100.00,East,97,3.0,5.0,90,-99.99,,,-99.99,,2013-01-09 16:12:00,
2013-01-09 09:42:00,12.0,10.0,-100.00,ESE,108,4.0,4.0,90,-99.99,,,-99.99,,2013-01-09 16:42:00,
2013-01-09 09:52:00,12.0,10.0,-100.00,ESE,108,4.0,4.0,90,-99.99,,,-99.99,,2013-01-09 16:52:00,
2013-01-09 10:12:00,16.0,14.0,-100.00,ESE,119,4.0,4.0,91,-99.99,,,-99.99,,2013-01-09 17:12:00,
2013-01-09 10:22:00,16.0,14.0,-100.00,ESE,119,4.0,4.0,91,-99.99,,,-99.99,,2013-01-09 17:22:00,
2013-01-09 10:32:00,16.0,14.0,-100.00,ESE,119,4.0,4.0,91,-99.99,,,-99.99,,2013-01-09 17:32:00,
2013-01-09 10:43:00,18.0,16.0,-100.00,East,88,5.0,5.0,90,-99.99,,,-99.99,,2013-01-09 17:43:00,
2013-01-09 10:52:00,18.0,16.0,-100.00,East,88,5.0,5.0,90,-99.99,,,-99.99,,2013-01-09 17:52:00,
2013-01-09 11:03:00,23.0,21.0,-100.00,SE,128,2.0,6.0,91,-99.99,,,-99.99,,2013-01-09 18:03:00,
2013-01-09 11:12:00,23.0,21.0,-100.00,SE,128,2.0,6.0,91,-99.99,,,-99.99,,2013-01-09 18:12:00,
2013-01-09 11:23:00,23.0,21.0,-100.00,SE,128,2.0,6.0,91,-99.99,,,-99.99,,2013-01-09 18:23:00,
2013-01-09 11:32:00,26.0,23.0,-100.00,ENE,71,1.0,3.0,88,-99.99,,,-99.99,,2013-01-09 18:32:00,
2013-01-09 11:42:00,30.0,25.0,-100.00,North,0,0.0,1.0,83,-99.99,,,-99.99,,2013-01-09 18:42:00,
2013-01-09 11:52:00,30.0,25.0,-100.00,North,0,0.0,1.0,83,-99.99,,,-99.99,,2013-01-09 18:52:00,
2013-01-09 12:02:00,30.0,25.0,-100.00,North,0,0.0,1.0,83,-99.99,,,-99.99,,2013-01-09 19:02:00,
2013-01-09 12:12:00,28.0,21.0,-100.00,East,97,5.0,7.0,75,-99.99,,,-99.99,,2013-01-09 19:12:00,
2013-01-09 12:22:00,28.0,21.0,-100.00,East,97,5.0,7.0,75,-99.99,,,-99.99,,2013-01-09 19:22:00,
2013-01-09 12:33:00,28.0,21.0,-100.00,East,97,5.0,7.0,75,-99.99,,,-99.99,,2013-01-09 19:33:00,
2013-01-09 12:42:00,28.0,21.0,-100.00,East,97,5.0,7.0,75,-99.99,,,-99.99,,2013-01-09 19:42:00,
2013-01-09 12:52:00,31.0,22.0,-100.00,East,89,3.0,6.0,68,-99.99,,,-99.99,,2013-01-09 19:52:00,
2013-01-09 13:02:00,37.0,26.0,-100.00,East,96,1.0,5.0,63,-99.99,,,-99.99,,2013-01-09 20:02:00,
2013-01-09 13:12:00,40.0,23.0,-100.00,SE,138,2.0,4.0,52,-99.99,,,-99.99,,2013-01-09 20:12:00,
2013-01-09 13:22:00,40.0,23.0,-100.00,SE,138,2.0,4.0,52,-99.99,,,-99.99,,2013-01-09 20:22:00,
2013-01-09 13:32:00,40.0,23.0,-100.00,SE,138,2.0,4.0,52,-99.99,,,-99.99,,2013-01-09 20:32:00,
2013-01-09 13:42:00,41.0,22.0,-100.00,East,89,0.0,3.0,46,-99.99,,,-99.99,,2013-01-09 20:42:00,
2013-01-09 13:52:00,44.0,22.0,-100.00,SSE,154,1.0,3.0,42,-99.99,,,-99.99,,2013-01-09 20:52:00,
2013-01-09 14:02:00,44.0,22.0,-100.00,SSE,154,1.0,3.0,42,-99.99,,,-99.99,,2013-01-09 21:02:00,
2013-01-09 14:12:00,43.0,19.0,-100.00,SSE,161,4.0,8.0,38,-99.99,,,-99.99,,2013-01-09 21:12:00,
2013-01-09 14:22:00,42.0,20.0,-100.00,East,89,13.0,14.0,40,-99.99,,,-99.99,,2013-01-09 21:22:00,
2013-01-09 14:32:00,42.0,20.0,-100.00,East,89,13.0,14.0,40,-99.99,,,-99.99,,2013-01-09 21:32:00,
2013-01-09 14:42:00,42.0,20.0,-100.00,East,89,13.0,14.0,40,-99.99,,,-99.99,,2013-01-09 21:42:00,
2013-01-09 14:52:00,44.0,18.0,-100.00,ESE,120,6.0,11.0,34,-99.99,,,-99.99,,2013-01-09 21:52:00,
2013-01-09 15:12:00,44.0,17.0,-100.00,ESE,106,14.0,20.0,34,-99.99,,,-99.99,,2013-01-09 22:12:00,
2013-01-09 15:22:00,44.0,17.0,-100.00,ESE,106,14.0,20.0,34,-99.99,,,-99.99,,2013-01-09 22:22:00,
2013-01-09 15:33:00,44.0,16.0,-100.00,East,101,18.0,22.0,32,-99.99,,,-99.99,,2013-01-09 22:33:00,
2013-01-09 15:42:00,44.0,16.0,-100.00,East,101,18.0,22.0,32,-99.99,,,-99.99,,2013-01-09 22:42:00,
2013-01-09 15:52:00,45.0,16.0,-100.00,ESE,112,12.0,17.0,31,-99.99,,,-99.99,,2013-01-09 22:52:00,
2013-01-09 16:02:00,44.0,16.0,-100.00,SE,124,9.0,15.0,30,-99.99,,,-99.99,,2013-01-09 23:02:00,
2013-01-09 16:12:00,44.0,16.0,-100.00,ESE,106,14.0,18.0,31,-99.99,,,-99.99,,2013-01-09 23:12:00,
2013-01-09 16:22:00,44.0,16.0,-100.00,ESE,106,14.0,18.0,31,-99.99,,,-99.99,,2013-01-09 23:22:00,
2013-01-09 16:32:00,44.0,16.0,-100.00,East,86,11.0,20.0,31,-99.99,,,-99.99,,2013-01-09 23:32:00,
2013-01-09 16:42:00,44.0,16.0,-100.00,NE,49,9.0,15.0,32,-99.99,,,-99.99,,2013-01-09 23:42:00,
2013-01-09 16:52:00,44.0,16.0,-100.00,NE,49,9.0,15.0,32,-99.99,,,-99.99,,2013-01-09 23:52:00,
2013-01-09 17:02:00,43.0,16.0,-100.00,NE,45,11.0,25.0,33,-99.99,,,-99.99,,2013-01-10 00:02:00,
2013-01-09 17:12:00,43.0,17.0,-100.00,ENE,77,10.0,21.0,34,-99.99,,,-99.99,,2013-01-10 00:12:00,
2013-01-09 17:22:00,43.0,17.0,-100.00,ENE,77,10.0,21.0,34,-99.99,,,-99.99,,2013-01-10 00:22:00,
2013-01-09 17:42:00,39.0,20.0,-100.00,ENE,77,11.0,14.0,44,-99.99,,,-99.99,,2013-01-10 00:42:00,
2013-01-09 17:52:00,39.0,20.0,-100.00,ENE,77,11.0,14.0,44,-99.99,,,-99.99,,2013-01-10 00:52:00,
2013-01-09 18:02:00,39.0,20.0,-100.00,East,87,12.0,16.0,46,-99.99,,,-99.99,,2013-01-10 01:02:00,
2013-01-09 18:12:00,38.0,20.0,-100.00,East,87,10.0,16.0,46,-99.99,,,-99.99,,2013-01-10 01:12:00,
2013-01-09 18:22:00,38.0,20.0,-100.00,East,87,10.0,16.0,46,-99.99,,,-99.99,,2013-01-10 01:22:00,
2013-01-09 18:32:00,38.0,19.0,-100.00,ENE,58,10.0,17.0,45,-99.99,,,-99.99,,2013-01-10 01:32:00,
2013-01-09 18:42:00,38.0,20.0,-100.00,ENE,76,13.0,16.0,47,-99.99,,,-99.99,,2013-01-10 01:42:00,
2013-01-09 18:50:00,37.0,19.0,-100.00,East,97,18.0,26.0,46,-99.99,,,-99.99,,2013-01-10 01:50:00,
2013-01-09 18:52:00,38.0,20.0,-100.00,ENE,76,13.0,16.0,47,-99.99,,,-99.99,,2013-01-10 01:52:00,
2013-01-09 19:02:00,38.0,19.0,-100.00,East,92,19.0,26.0,47,-99.99,,,-99.99,,2013-01-10 02:02:00,
2013-01-09 19:12:00,37.0,19.0,-100.00,East,97,18.0,26.0,46,-99.99,,,-99.99,,2013-01-10 02:12:00,
2013-01-09 19:22:00,37.0,19.0,-100.00,East,97,18.0,26.0,46,-99.99,,,-99.99,,2013-01-10 02:22:00,
2013-01-09 19:32:00,37.0,19.0,-100.00,East,97,18.0,26.0,46,-99.99,,,-99.99,,2013-01-10 02:32:00,
2013-01-09 19:42:00,37.0,19.0,-100.00,East,97,18.0,26.0,46,-99.99,,,-99.99,,2013-01-10 02:42:00,
2013-01-09 20:02:00,37.0,19.0,-100.00,East,101,3.0,7.0,48,-99.99,,,-99.99,,2013-01-10 03:02:00,
2013-01-09 20:11:00,36.0,18.0,-100.00,East,88,11.0,11.0,48,-99.99,,,-99.99,,2013-01-10 03:11:00,
2013-01-09 20:22:00,36.0,18.0,-100.00,ESE,110,6.0,14.0,47,-99.99,,,-99.99,,2013-01-10 03:22:00,
2013-01-09 20:32:00,36.0,18.0,-100.00,ESE,110,6.0,14.0,47,-99.99,,,-99.99,,2013-01-10 03:32:00,
2013-01-09 20:42:00,35.0,19.0,-100.00,East,95,13.0,16.0,51,-99.99,,,-99.99,,2013-01-10 03:42:00,
2013-01-09 20:52:00,36.0,19.0,-100.00,ENE,75,14.0,24.0,49,-99.99,,,-99.99,,2013-01-10 03:52:00,
2013-01-09 21:02:00,36.0,19.0,-100.00,ENE,75,14.0,24.0,49,-99.99,,,-99.99,,2013-01-10 04:02:00,
2013-01-09 21:12:00,36.0,18.0,-100.00,ENE,74,16.0,22.0,48,-99.99,,,-99.99,,2013-01-10 04:12:00,
2013-01-09 21:22:00,36.0,19.0,-100.00,ENE,76,16.0,22.0,49,-99.99,,,-99.99,,2013-01-10 04:22:00,
2013-01-09 21:32:00,36.0,19.0,-100.00,ENE,76,16.0,22.0,49,-99.99,,,-99.99,,2013-01-10 04:32:00,
2013-01-09 21:42:00,35.0,19.0,-100.00,ENE,66,19.0,24.0,50,-99.99,,,-99.99,,2013-01-10 04:42:00,
2013-01-09 21:52:00,35.0,19.0,-100.00,ENE,70,19.0,25.0,50,-99.99,,,-99.99,,2013-01-10 04:52:00,
2013-01-09 22:03:00,35.0,19.0,-100.00,ENE,70,19.0,25.0,50,-99.99,,,-99.99,,2013-01-10 05:03:00,
2013-01-09 22:12:00,35.0,18.0,-100.00,ENE,72,22.0,28.0,48,-99.99,,,-99.99,,2013-01-10 05:12:00,
2013-01-09 22:22:00,36.0,18.0,-100.00,ENE,66,21.0,30.0,47,-99.99,,,-99.99,,2013-01-10 05:22:00,
2013-01-09 22:33:00,36.0,18.0,-100.00,ENE,64,18.0,29.0,48,-99.99,,,-99.99,,2013-01-10 05:33:00,
2013-01-09 22:42:00,36.0,18.0,-100.00,ENE,65,20.0,28.0,48,-99.99,,,-99.99,,2013-01-10 05:42:00,
2013-01-09 22:52:00,36.0,18.0,-100.00,ENE,65,20.0,28.0,48,-99.99,,,-99.99,,2013-01-10 05:52:00,
2013-01-09 23:02:00,35.0,19.0,-100.00,ENE,58,22.0,31.0,50,-99.99,,,-99.99,,2013-01-10 06:02:00,
2013-01-09 23:11:00,35.0,19.0,-100.00,NE,50,20.0,26.0,50,-99.99,,,-99.99,,2013-01-10 06:11:00,
2013-01-09 23:22:00,35.0,19.0,-100.00,NE,50,20.0,26.0,50,-99.99,,,-99.99,,2013-01-10 06:22:00,
2013-01-09 23:32:00,36.0,18.0,-100.00,NE,34,12.0,23.0,48,-99.99,,,-99.99,,2013-01-10 06:32:00,
2013-01-09 23:42:00,35.0,19.0,-100.00,NNE,27,10.0,16.0,50,-99.99,,,-99.99,,2013-01-10 06:42:00,
2013-01-09 23:52:00,35.0,19.0,-100.00,NNE,27,10.0,16.0,50,-99.99,,,-99.99,,2013-01-10 06:52:00,